Location: Wellington
(41.3000°S, 174.8000°E)
Time: 17:33:12
(UTC+12:00)

ISS - Visible Passes

Search period start: 28 July 2021 00:00
Search period end: 07 August 2021 00:00
Orbit: 419 x 421 km, 51.6° (Epoch: 28 July)

Date Brightness Start Highest point End Pass type
(mag) Time Alt. Az. Time Alt. Az. Time Alt. Az.
28 Jul -1.0 05:10:34 15° SE 05:10:34 15° SE 05:11:16 10° SE visible
28 Jul -1.6 06:43:33 11° SW 06:45:33 16° S 06:47:46 10° SSE visible
29 Jul -1.8 05:58:12 18° S 05:58:12 18° S 06:00:29 10° SSE visible
30 Jul -0.8 05:12:50 12° SSE 05:12:50 12° SSE 05:13:18 10° SE visible
30 Jul -1.5 06:46:18 10° SW 06:48:20 15° S 06:50:22 10° SE visible
31 Jul -1.5 06:00:27 15° S 06:00:50 15° S 06:02:53 10° SSE visible
01 Aug -0.9 05:15:05 12° SSE 05:15:05 12° SSE 05:15:35 10° SSE visible
01 Aug -1.6 06:48:49 10° SSW 06:51:13 17° SSE 06:53:38 10° ESE visible
02 Aug -1.5 06:02:43 14° SSW 06:03:48 16° S 06:05:59 10° SE visible
03 Aug -1.0 05:17:24 13° SSE 05:17:24 13° SSE 05:18:27 10° SE visible
03 Aug -2.1 06:51:08 10° SW 06:54:07 27° SSE 06:57:06 10° E visible
04 Aug -1.7 06:05:07 15° SSW 06:06:49 21° SSE 06:09:33 10° ESE visible
05 Aug -1.4 05:19:54 17° SSE 05:19:54 17° SSE 05:21:58 10° ESE visible
05 Aug -3.2 06:53:33 10° SW 06:56:57 56° SSE 07:00:20 10° ENE visible
06 Aug -2.6 06:07:44 18° SSW 06:09:49 37° SSE 06:13:03 10° E visible
